TimeHST,TemperatureF,Dew PointF,Humidity,Sea Level PressureIn,VisibilityMPH,Wind Direction,Wind SpeedMPH,Gust SpeedMPH,PrecipitationIn,Events,Conditions,WindDirDegrees,DateUTC
12:55 AM,66.7,63.5,89,30.06,10.0,WNW,4.6,-,N/A,,Partly Cloudy,300,2013-04-17 10:55:00
1:55 AM,65.3,62.6,91,30.06,10.0,NW,4.6,-,N/A,,Clear,310,2013-04-17 11:55:00
2:55 AM,64.0,61.7,92,30.05,10.0,NW,5.8,-,N/A,,Clear,310,2013-04-17 12:55:00
3:55 AM,64.0,61.7,92,30.04,10.0,NW,4.6,-,N/A,,Scattered Clouds,310,2013-04-17 13:55:00
4:55 AM,63.9,60.8,90,30.05,10.0,WNW,4.6,-,N/A,,Partly Cloudy,300,2013-04-17 14:55:00
5:55 AM,63.7,61.0,91,30.05,10.0,WNW,4.6,-,N/A,,Clear,300,2013-04-17 15:55:00
6:55 AM,64.8,62.4,92,30.07,10.0,Calm,Calm,-,N/A,,Clear,0,2013-04-17 16:55:00
7:55 AM,70.7,64.8,81,30.09,10.0,Calm,Calm,-,N/A,,Clear,0,2013-04-17 17:55:00
8:55 AM,74.7,65.1,72,30.11,10.0,Calm,Calm,-,N/A,,Scattered Clouds,0,2013-04-17 18:55:00
9:34 AM,77.0,66.2,69,30.11,10.0,East,9.2,-,N/A,,Light Drizzle,90,2013-04-17 19:34:00
9:44 AM,77.0,64.4,65,30.12,10.0,Variable,6.9,-,N/A,,Mostly Cloudy,0,2013-04-17 19:44:00
9:55 AM,77.7,65.1,65,30.12,10.0,East,8.1,-,0.00,,Scattered Clouds,100,2013-04-17 19:55:00
10:55 AM,77.4,65.1,66,30.11,10.0,ENE,9.2,-,N/A,,Mostly Cloudy,70,2013-04-17 20:55:00
11:55 AM,79.9,65.1,61,30.10,10.0,East,13.8,-,N/A,,Clear,90,2013-04-17 21:55:00
12:55 PM,79.5,65.8,63,30.09,10.0,East,10.4,-,N/A,,Scattered Clouds,100,2013-04-17 22:55:00
1:55 PM,79.2,65.1,62,30.07,10.0,East,16.1,23.0,N/A,,Mostly Cloudy,80,2013-04-17 23:55:00
2:36 PM,77.0,64.4,65,30.07,10.0,ESE,10.4,-,N/A,Rain,Light Rain,110,2013-04-18 00:36:00
2:45 PM,78.8,66.2,65,30.06,10.0,ESE,10.4,-,N/A,,Mostly Cloudy,120,2013-04-18 00:45:00
2:55 PM,78.4,65.7,65,30.06,10.0,East,9.2,-,0.00,,Scattered Clouds,100,2013-04-18 00:55:00
3:55 PM,78.8,64.0,60,30.06,10.0,ENE,15.0,-,N/A,,Scattered Clouds,70,2013-04-18 01:55:00
4:55 PM,74.3,64.9,72,30.07,10.0,ENE,9.2,-,N/A,,Mostly Cloudy,70,2013-04-18 02:55:00
5:11 PM,75.2,66.2,73,30.08,10.0,ENE,12.7,-,N/A,,Light Drizzle,60,2013-04-18 03:11:00
5:23 PM,73.4,66.2,78,30.08,9.0,NE,8.1,-,N/A,,Mostly Cloudy,50,2013-04-18 03:23:00
5:55 PM,73.9,65.5,75,30.09,10.0,ENE,11.5,-,0.00,,Mostly Cloudy,60,2013-04-18 03:55:00
6:55 PM,71.8,64.6,78,30.10,10.0,ENE,10.4,-,N/A,,Clear,70,2013-04-18 04:55:00
7:55 PM,70.9,63.7,78,30.12,10.0,East,6.9,-,N/A,,Clear,80,2013-04-18 05:55:00
8:13 PM,71.6,62.6,73,30.12,10.0,NNE,3.5,-,N/A,,Light Drizzle,30,2013-04-18 06:13:00
8:24 PM,71.6,62.6,73,30.12,10.0,ENE,4.6,-,N/A,,Mostly Cloudy,60,2013-04-18 06:24:00
8:55 PM,70.7,62.6,75,30.14,10.0,ENE,3.5,-,0.00,,Clear,70,2013-04-18 06:55:00
9:55 PM,70.2,61.3,74,30.14,10.0,ENE,8.1,-,N/A,,Clear,60,2013-04-18 07:55:00
10:55 PM,70.2,62.1,75,30.14,10.0,Variable,3.5,-,N/A,,Clear,0,2013-04-18 08:55:00
11:55 PM,70.0,61.9,75,30.12,10.0,East,5.8,-,N/A,,Partly Cloudy,80,2013-04-18 09:55:00